Waarnemingen

Advertentie
Mijn weer
Aberdeen/Dyce, Groot Brittannië (3091): temperatuur & dauwpunt: 11.12.2018 00:00:00 - 17.12.2018 00:00:00 (GMT)Aberdeen/Dyce, Groot Brittannië (3091): temperatuur -20cm & temperatuur -100cm: 11.12.2018 00:00:00 - 17.12.2018 00:00:00 (GMT)Aberdeen/Dyce, Groot Brittannië (3091): windsnelheid & windstoten: 11.12.2018 00:00:00 - 17.12.2018 00:00:00 (GMT)Aberdeen/Dyce, Groot Brittannië (3091): windrichting: 11.12.2018 00:00:00 - 17.12.2018 00:00:00 (GMT)Aberdeen/Dyce, Groot Brittannië (3091): luchtdruk: 11.12.2018 00:00:00 - 17.12.2018 00:00:00 (GMT)Aberdeen/Dyce, Groot Brittannië (3091): zicht: 11.12.2018 00:00:00 - 17.12.2018 00:00:00 (GMT)Aberdeen/Dyce, Groot Brittannië (3091): Zonneschijnduur: 11.12.2018 00:00:00 - 17.12.2018 00:00:00 (GMT)Aberdeen/Dyce, Groot Brittannië (3091): neerslag: 11.12.2018 00:00:00 - 17.12.2018 00:00:00 (GMT)
Datum & Tijd tt [°C] td [°C] tt -20cm [°C] tt -100cm [°C] ff [km/u] ff [kn] fx [km/u] fx [kn] dd ppp [hPa] vv [km] sd [min] rr [mm]
17.12.2018 00:00:00 4,4 2,8 - - 9 5 - - ZZO 1004,8 10 - 0,0
16.12.2018 23:00:00 3,3 1,5 - - 8 4 - - Z 1004,4 10 0 0,0
16.12.2018 22:00:00 4,9 3,4 - - 13 7 - - ZZW 1004,0 10 0 0,0
16.12.2018 21:00:00 4,4 3,4 - - 8 4 - - Z 1003,7 10 0 0,0
16.12.2018 20:00:00 3,4 2,4 - - 15 8 - - Z 1003,5 10 0 0,0
16.12.2018 19:00:00 3,2 1,8 - - 11 6 - - Z 1003,2 27 0 0,0
16.12.2018 18:00:00 3,8 1,9 - - 16 9 - - Z 1002,4 10 0 0,0
16.12.2018 17:00:00 3,0 1,4 - - 11 6 - - ZZO 1001,7 27 0 0,0
16.12.2018 16:00:00 3,5 1,5 - - 4 2 - - - 1001,0 10 0 0,0
16.12.2018 15:00:00 4,8 1,7 - - 8 4 - - ZO 1000,0 10 30 0,0
16.12.2018 14:00:00 6,3 2,1 - - 4 2 - - O 998,9 45 60 0,0
16.12.2018 13:00:00 6,4 2,0 - - 13 7 - - ZW 998,4 10 60 0,0
16.12.2018 12:00:00 5,8 2,0 - - 21 11 - - ZW 997,6 10 54 0,0
16.12.2018 11:00:00 5,2 1,7 - - 11 6 - - ZW 996,3 10 36 0,0
16.12.2018 10:00:00 3,8 1,1 - - 18 10 - - ZZW 995,0 10 0 0,0
16.12.2018 09:00:00 3,7 1,3 5,7 7,7 24 13 - - ZZW 993,2 10 0 0,0
16.12.2018 08:00:00 3,3 1,3 - - 28 15 - - ZZW 990,9 10 0 0,0
16.12.2018 07:00:00 2,0 0,8 - - 24 13 - - Z 990,0 10 0 0,0
16.12.2018 06:00:00 3,6 2,3 - - 15 8 - - Z 989,2 10 0 0,2
16.12.2018 05:00:00 4,1 3,0 - - 13 7 - - WZW 988,1 10 0 0,4
16.12.2018 04:00:00 5,3 4,0 - - 21 11 61 33 ZZW 987,6 7 0 1,0
16.12.2018 03:00:00 6,2 5,6 - - 31 17 65 35 ZZO 987,9 3,8 0 1,8
16.12.2018 02:00:00 5,6 5,1 - - 39 21 70 38 ZZO 988,9 2,6 0 0,4
16.12.2018 01:00:00 4,7 4,1 - - 42 23 78 42 ZO 990,1 2,9 0 0,8
16.12.2018 00:00:00 3,8 3,2 - - 46 25 74 40 ZO 991,6 4,4 - 3,6
15.12.2018 23:00:00 3,6 3,1 - - 44 24 85 46 ZZO 993,2 4,6 0 5,2
15.12.2018 22:00:00 3,6 2,9 - - 50 27 83 45 ZO 994,5 2,9 0 4,8
15.12.2018 21:00:00 3,5 2,9 - - 59 32 81 44 ZZO 995,7 1,9 0 5,2
15.12.2018 20:00:00 3,7 2,9 - - 46 25 80 43 ZZO 996,6 4,7 0 4,4
15.12.2018 19:00:00 4,3 2,9 - - 52 28 85 46 ZZO 998,0 4,6 0 1,0
15.12.2018 18:00:00 4,9 1,8 - - 50 27 87 47 ZZO 998,8 9 0 0,0
15.12.2018 17:00:00 4,8 1,8 - - 55 30 78 42 ZO 1000,4 8 0 0,0
15.12.2018 16:00:00 4,3 2,0 - - 63 34 91 49 ZZO 1001,7 6 0 0,0
15.12.2018 15:00:00 5,2 -0,2 - - 42 23 78 42 ZZO 1003,5 10 0 0,0
15.12.2018 14:00:00 5,1 0,0 - - 48 26 74 40 ZZO 1005,5 10 0 0,0
15.12.2018 13:00:00 4,7 0,2 - - 50 27 74 40 ZZO 1006,8 14 0 0,0
15.12.2018 12:00:00 4,7 -0,2 - - 50 27 72 39 ZZO 1008,6 10 0 0,0
15.12.2018 11:00:00 4,8 -0,3 - - 46 25 67 36 ZZO 1010,8 10 0 0,0
15.12.2018 10:00:00 4,8 0,0 - - 42 23 63 34 Z 1012,8 17 0 0,0
15.12.2018 09:00:00 4,8 0,0 6,0 7,7 37 20 61 33 Z 1013,3 10 0 0,0
15.12.2018 08:00:00 4,3 -0,5 - - 37 20 63 34 Z 1012,0 25 0 0,0
15.12.2018 07:00:00 4,1 -1,6 - - 41 22 59 32 Z 1013,5 10 0 0,0
15.12.2018 06:00:00 4,1 -1,5 - - 39 21 59 32 Z 1014,5 27 0 0,0
15.12.2018 05:00:00 4,3 -1,5 - - 39 21 63 34 Z 1015,3 10 0 0,0
15.12.2018 04:00:00 4,0 -1,9 - - 35 19 67 36 Z 1015,8 10 0 0,0
15.12.2018 03:00:00 3,9 -1,9 - - 41 22 68 37 Z 1016,4 10 0 0,0
15.12.2018 02:00:00 3,8 -2,0 - - 46 25 61 33 Z 1017,2 10 0 0,0
15.12.2018 01:00:00 3,6 -2,3 - - 35 19 59 32 Z 1017,2 10 0 0,0
15.12.2018 00:00:00 3,8 3,2 - - 34 18 74 40 Z 991,6 10 - 0,0
14.12.2018 23:00:00 3,7 -2,7 - - 39 21 55 30 Z 1018,6 10 0 0,0
14.12.2018 22:00:00 3,7 -2,7 - - 34 18 50 27 Z 1019,2 10 0 0,0
14.12.2018 21:00:00 3,6 -2,0 - - 28 15 52 28 Z 1019,3 10 0 0,0
14.12.2018 20:00:00 3,4 -1,9 - - 31 17 - - Z 1019,3 10 0 0,0
14.12.2018 19:00:00 3,5 -1,5 - - 28 15 46 25 Z 1019,7 10 0 0,0
14.12.2018 18:00:00 3,8 -1,4 - - 26 14 - - Z 1020,0 10 0 0,0
14.12.2018 17:00:00 3,4 -2,0 - - 26 14 - - Z 1020,5 10 0 0,0
14.12.2018 16:00:00 3,2 -0,9 - - 29 16 - - Z 1021,0 10 0 0,0
14.12.2018 15:00:00 4,0 -0,5 - - 29 16 48 26 Z 1021,1 10 12 0,0
14.12.2018 14:00:00 5,0 0,7 - - 26 14 - - Z 1021,3 40 12 0,0
14.12.2018 13:00:00 4,1 2,1 - - 26 14 46 25 ZZO 1021,9 10 0 0,0
14.12.2018 12:00:00 4,2 1,8 - - 16 9 46 25 Z 1021,8 10 6 0,2
14.12.2018 11:00:00 4,4 2,5 - - 13 7 - - Z 1022,1 10 0 1,0
14.12.2018 10:00:00 4,0 2,6 - - 21 11 - - Z 1022,0 35 0 0,6
14.12.2018 09:00:00 4,0 2,3 6,2 7,7 13 7 - - Z 1021,9 10 0 0,8
14.12.2018 08:00:00 3,9 2,0 - - 16 9 - - Z 1021,9 10 0 0,2
14.12.2018 07:00:00 3,9 2,2 - - 22 12 - - Z 1022,0 10 0 0,8
14.12.2018 06:00:00 4,2 2,0 - - 22 12 - - Z 1022,4 30 0 0,4
14.12.2018 05:00:00 3,8 1,7 - - 21 11 - - ZZW 1022,3 40 0 0,2
14.12.2018 04:00:00 5,2 1,5 - - 26 14 - - Z 1022,5 10 0 0,0
14.12.2018 03:00:00 5,7 0,7 - - 29 16 - - ZZO 1022,5 10 0 0,0
14.12.2018 02:00:00 5,5 0,9 - - 29 16 54 29 ZZO 1022,3 10 0 0,0
14.12.2018 01:00:00 5,4 1,5 - - 22 12 - - ZZO 1022,4 10 0 0,0
14.12.2018 00:00:00 5,7 0,8 - - 31 17 55 30 ZZO 1022,3 10 - 0,0
13.12.2018 23:00:00 5,5 0,5 - - 28 15 - - ZZO 1022,5 10 0 0,0
13.12.2018 22:00:00 5,5 1,2 - - 29 16 52 28 ZZO 1022,4 10 0 0,0
13.12.2018 21:00:00 6,4 1,5 - - 34 18 46 25 ZZO 1022,5 10 0 0,0
13.12.2018 20:00:00 6,1 1,2 - - 24 13 54 29 Z 1022,3 35 0 0,0
13.12.2018 19:00:00 6,0 1,6 - - 29 16 52 28 Z 1022,0 40 0 0,0
13.12.2018 18:00:00 6,3 1,3 - - 34 18 52 28 Z 1021,4 30 0 0,0
13.12.2018 17:00:00 6,1 2,0 - - 39 21 52 28 ZZO 1021,0 10 0 0,0
13.12.2018 16:00:00 5,8 3,1 - - 29 16 52 28 Z 1020,6 22 0 0,0
13.12.2018 15:00:00 5,7 3,0 - - 34 18 48 26 Z 1019,9 19 0 0,2
13.12.2018 14:00:00 5,8 3,4 - - 37 20 54 29 ZZO 1019,7 10 0 0,2
13.12.2018 13:00:00 5,0 2,8 - - 34 18 54 29 Z 1019,9 6 0 0,4
13.12.2018 12:00:00 5,2 2,4 - - 42 23 67 36 Z 1019,9 10 0 0,2
13.12.2018 11:00:00 5,6 3,3 - - 29 16 59 32 Z 1019,8 20 0 1,0
13.12.2018 10:00:00 6,0 2,1 - - 39 21 61 33 Z 1019,6 10 0 0,0
13.12.2018 09:00:00 5,5 2,7 6,2 7,9 34 18 61 33 Z 1019,3 22 0 0,2
13.12.2018 08:00:00 6,2 1,0 - - 41 22 61 33 ZZO 1018,9 10 0 0,0
13.12.2018 07:00:00 6,4 0,8 - - 34 18 54 29 ZZO 1018,4 25 0 0,0
13.12.2018 06:00:00 6,0 1,5 - - 35 19 55 30 ZZO 1018,6 10 0 0,0
13.12.2018 05:00:00 5,9 1,9 - - 37 20 54 29 ZZO 1018,5 10 0 0,0
13.12.2018 04:00:00 5,9 2,5 - - 35 19 61 33 ZZO 1018,7 10 0 0,0
13.12.2018 03:00:00 5,7 2,9 - - 39 21 55 30 ZZO 1018,9 10 0 0,4
13.12.2018 02:00:00 5,6 3,4 - - 37 20 55 30 ZZO 1019,4 10 0 1,0
13.12.2018 01:00:00 5,7 4,0 - - 37 20 61 33 Z 1019,4 16 0 0,4
13.12.2018 00:00:00 6,8 3,2 - - 35 19 50 27 ZZO 1019,0 10 - 0,0
12.12.2018 23:00:00 6,4 3,4 - - 31 17 54 29 ZZO 1019,1 10 0 0,0
12.12.2018 22:00:00 6,9 0,6 - - 41 22 57 31 ZZO 1019,3 10 0 0,0
12.12.2018 21:00:00 6,5 1,2 - - 39 21 63 34 ZZO 1019,4 10 0 0,0
12.12.2018 20:00:00 7,1 1,8 - - 39 21 63 34 Z 1019,6 28 0 0,0
12.12.2018 19:00:00 7,1 2,8 - - 35 19 52 28 Z 1019,7 10 0 0,0
12.12.2018 18:00:00 7,0 2,9 - - 41 22 57 31 ZZO 1019,6 10 0 0,0
12.12.2018 17:00:00 7,2 2,8 - - 35 19 55 30 Z 1019,8 29 0 0,0
12.12.2018 16:00:00 7,4 3,1 - - 39 21 61 33 ZZO 1020,0 10 0 0,0
12.12.2018 15:00:00 7,4 3,7 - - 31 17 55 30 Z 1019,8 10 0 0,0
12.12.2018 14:00:00 7,8 3,5 - - 37 20 59 32 Z 1020,3 10 0 0,0
12.12.2018 13:00:00 7,7 3,9 - - 35 19 55 30 ZZO 1020,3 10 0 0,0
12.12.2018 12:00:00 7,6 4,0 - - 39 21 57 31 ZZO 1020,8 10 0 0,0
12.12.2018 11:00:00 7,7 5,0 - - 34 18 54 29 ZZO 1021,1 10 0 0,0
12.12.2018 10:00:00 7,5 5,2 - - 35 19 50 27 ZZO 1020,9 10 0 0,0
12.12.2018 09:00:00 7,4 5,2 6,0 7,9 35 19 50 27 ZZO 1020,9 10 0 0,0
12.12.2018 08:00:00 7,2 5,2 - - 37 20 55 30 Z 1020,5 10 0 0,0
12.12.2018 07:00:00 7,3 5,4 - - 35 19 52 28 ZZO 1020,1 10 0 0,0
12.12.2018 06:00:00 7,2 5,5 - - 31 17 - - ZZO 1019,9 9 0 0,0
12.12.2018 05:00:00 6,9 5,5 - - 34 18 52 28 Z 1019,7 11 0 0,0
12.12.2018 04:00:00 7,0 5,6 - - 28 15 - - Z 1019,9 9 0 0,0
12.12.2018 03:00:00 7,1 5,8 - - 31 17 46 25 Z 1020,0 8 0 0,0
12.12.2018 02:00:00 7,0 5,7 - - 29 16 46 25 Z 1019,9 8 0 0,0
12.12.2018 01:00:00 7,1 6,0 - - 29 16 46 25 ZZO 1020,1 7 0 0,0
12.12.2018 00:00:00 7,8 6,6 - - 29 16 50 27 Z 1020,0 10 - 0,0
11.12.2018 23:00:00 7,6 6,6 - - 28 15 - - Z 1020,0 10 0 0,0
11.12.2018 22:00:00 7,4 6,6 - - 29 16 46 25 Z 1019,9 7 0 0,2
11.12.2018 21:00:00 7,4 7,0 - - 29 16 - - Z 1019,9 5 0 0,0
11.12.2018 20:00:00 7,3 6,9 - - 26 14 - - Z 1020,0 3,7 0 0,0
11.12.2018 19:00:00 7,2 6,8 - - 26 14 - - ZZO 1020,1 3,7 0 0,0
11.12.2018 18:00:00 7,3 6,5 - - 22 12 - - Z 1020,0 8 0 0,0
11.12.2018 17:00:00 6,7 5,5 - - 18 10 - - Z 1020,1 10 0 0,0
11.12.2018 16:00:00 6,5 5,3 - - 18 10 - - Z 1020,1 10 0 0,0
11.12.2018 15:00:00 6,7 5,2 - - 21 11 - - Z 1020,2 10 0 -
11.12.2018 14:00:00 6,5 5,2 - - 28 15 - - Z 1020,7 22 0 0,0
11.12.2018 13:00:00 6,7 5,1 - - 22 12 - - Z 1021,2 20 0 0,0
11.12.2018 12:00:00 7,2 5,2 - - 21 11 - - Z 1021,6 28 0 0,0
11.12.2018 11:00:00 6,7 4,9 - - 18 10 - - Z 1022,2 35 0 0,0
11.12.2018 10:00:00 6,2 4,4 - - 21 11 - - Z 1022,5 28 0 0,0
11.12.2018 09:00:00 5,4 3,4 5,9 8,0 21 11 - - Z 1022,6 10 0 0,0
11.12.2018 08:00:00 4,8 3,0 - - 13 7 - - Z 1022,6 10 0 0,0
11.12.2018 07:00:00 4,8 2,4 - - 13 7 - - Z 1022,9 10 0 0,0
11.12.2018 06:00:00 3,5 1,5 - - 9 5 - - ZZO 1023,1 10 0 0,0
11.12.2018 05:00:00 3,2 0,8 - - 16 9 - - Z 1023,4 10 0 0,2
11.12.2018 04:00:00 2,3 0,8 - - 11 6 - - Z 1023,8 10 0 0,0
11.12.2018 03:00:00 -1,1 -1,9 - - 4 2 - - - 1024,2 10 0 0,0
11.12.2018 02:00:00 -1,6 -2,1 - - 2 1 - - - 1024,5 10 0 0,0
11.12.2018 01:00:00 -2,3 -2,8 - - 2 1 - - ONO 1025,0 10 0 0,0
11.12.2018 00:00:00 -2,1 -2,5 - - 2 1 - - - 1025,3 10 - 0,0

tt = temperatuur
td = dauwpunt
tt -20cm = temperatuur -20cm
tt -100cm = temperatuur -100cm
ff = windsnelheid
fx = windstoten
dd = windrichting
ppp = luchtdruk
vv = zicht
sd = Zonneschijnduur
rr = neerslag

Weerstations in de omgeving